Flag for Switzerland Weather past 2 weeks in Zug, Zug, Switzerland

Now
45 °F

Cool.


Feels Like: 44 °F
Forecast: 24 / 52 °F
Wind: 3 mph from Northeast

Location: Zurich Town / Ville.

Current Time: Mar 6, 2015 at 3:48:18 PM

Latest Report: Mar 6, 2015 at 3:00 PM


Visibility: N/A

Pressure: 30.58 "Hg

Humidity: 46%

Dew point: 25 °F

Location of ZugLocation

Historic Weather in Zug — Graph

°F

Zug temperature yesterday

Maximum temperature yesterday: 42 °F (at 2:00 PM)
Minimum temperature yesterday: 32 °F (at 5:00 AM)
Average temperature yesterday: 36 °F

Past Weeks' High & Low Weather Summary

 TemperatureHumidityPressure
High50 °F (Feb 20, 4:00 PM)100% (Feb 21, 10:00 PM)30.71 "Hg (Feb 21, 10:00 PM)
Low28 °F (Mar 6, 8:00 AM)35% (Feb 20, 4:00 PM)29.58 "Hg (Feb 21, 12:00 PM)
Average37 °F77%30.08 "Hg
* Reported Feb 19 2:00 PM — Mar 6 2:00 PM, Zug, Weather by CustomWeather, © 2015

Note: Actual official high and low records may vary slightly from our data, if they occured in-between our weather recording intervals... More about our weather records

Advertising

Zug weather history for previous 24 hours

 ConditionsComfort  
Time TempWeatherWind HumidityBarometerVisibility
2:00 PM
Fri, Mar 6
44 °FQuite cool.5 mph44%30.59 "HgN/A
12:00 PM42 °FQuite cool.7 mph53%30.65 "HgN/A
11:00 AM39 °FChilly.7 mph59%30.68 "HgN/A
10:00 AM35 °FChilly.6 mph67%30.69 "HgN/A
9:00 AM32 °FChilly.3 mph73%30.71 "HgN/A
8:00 AM28 °FChilly.1 mph87%30.71 "HgN/A
7:00 AM29 °FPassing clouds.1 mph85%30.69 "HgN/A
6:00 AM28 °FChilly.2 mph84%30.69 "HgN/A
5:00 AM29 °FChilly.2 mph83%30.68 "HgN/A
3:00 AM30 °FChilly.2 mph80%30.67 "HgN/A
2:00 AM31 °FChilly.2 mph77%30.67 "HgN/A
1:00 AM31 °FChilly.2 mph75%30.67 "HgN/A
12:00 AM31 °FChilly.1 mph76%30.67 "HgN/A
11:00 PM
Thu, Mar 5
32 °FChilly.2 mph69%30.67 "HgN/A
9:00 PM34 °FChilly.2 mph64%30.66 "HgN/A
8:00 PM36 °FChilly.3 mph61%30.64 "HgN/A
7:00 PM37 °FChilly.2 mph52%30.63 "HgN/A
6:00 PM39 °FChilly.3 mph47%30.60 "HgN/A
5:00 PM40 °FChilly.3 mph46%30.59 "HgN/A
4:00 PM39 °FChilly.6 mph45%30.58 "HgN/A
3:00 PM40 °FQuite cool.6 mph46%30.58 "HgN/A
Weather by CustomWeather, © 2015

See weather overviewHow to use our weather pages